Regional Weather Roundup
Issued by NWS

Home | Current Version | Previous Version | Text Only | Print | Product List | Glossary Off
Versions: 1 2 3 4 5 6 7 8 9 10 11 12 13 14 15 16 17 18 19 20 21 22 23 24 25 26 27 28 29 30 31 32 33 34 35 36 37 38 39 40 41 42 43 44 45 46 47 48 49 50

000
ASUS43 KIND 310909
RWRIN

WEATHER ROUNDUP FOR INDIANA
NATIONAL WEATHER SERVICE INDIANAPOLIS IN
500 AM EDT SUN AUG 31 2014

NOTE: "FAIR" INDICATES FEW OR NO CLOUDS BELOW 12,000 FEET WITH NO
SIGNIFICANT WEATHER AND/OR OBSTRUCTIONS TO VISIBILITY.

* - STATION DOES NOT REPORT WEATHER SUCH AS PRECIPITATION OR FOG.

+ - STATION NOT QUALITY CONTROLLED BY THE NATIONAL WEATHER SERVICE.
    USE DATA WITH CAUTION...ESPECIALLY DEWPOINT AND RELATIVE
    HUMIDITY OBSERVATIONS.

INZ001>003-010>013-019-020-311000-
NORTHWEST INDIANA

CITY           SKY/WX    TMP DP  RH WIND       PRES   REMARKS
GARY /AIRPORT/ PTCLDY    68  66  93 CALM      29.93F
KNOX *+        MOCLDY    66  63  91 S5        29.94F
LA PORTE +     MOCLDY    65  65 100 CALM      29.96S
MICHIGAN CITY+ PTCLDY    64  64 100 CALM      29.94S
MONTICELLO +   CLOUDY    67  66  94 CALM      29.96F
RENSSELAER +   CLOUDY    68  68 100 S3        29.95F
VALPARAISO     MOCLDY    66  65  96 CALM      29.95R

$$

LMZ046-743>745-311000-
SOUTHERN LAKE MICHIGAN

STATION/POSITION TIME  TEMP WIND        PRES
                       AIR  DIR/SP/G
                 (UTC) (F)  (DEG/KT/KT) (MB)
MICHIGAN CITY    0900   68  160/  8/ 11   N/A

$$

INZ004-005-014>016-021>024-311000-
NORTH CENTRAL INDIANA

CITY           SKY/WX    TMP DP  RH WIND       PRES   REMARKS
GOSHEN         CLOUDY    71  67  87 SW9       29.95S
LOGANSPORT +   HVY RAIN  64  63  94 S10       29.98S
PERU/GRISSOM   RAIN      69  69 100 SW9       29.97S
ROCHESTER +    CLOUDY    70  68  94 CALM      29.96F
SOUTH BEND     MOCLDY    69  66  90 SW9       29.95S
WARSAW +       CLOUDY    68  68 100 SW5       29.96S

$$

INZ006>009-017-018-025>027-311000-
NORTHEAST INDIANA

CITY           SKY/WX    TMP DP  RH WIND       PRES   REMARKS
ANGOLA *+      MOCLDY    72  64  78 W9        29.96R
AUBURN +       RAIN      72  66  83 SW10G17   29.97S
FORT WAYNE     CLOUDY    70  67  90 W8        29.97F
HUNTINGTON +   RAIN      70  68  94 W3        29.97S

$$

INZ028-029-035-036-043>045-051>053-311000-
WEST CENTRAL INDIANA

CITY           SKY/WX    TMP DP  RH WIND       PRES   REMARKS
GREENCASTLE +  CLOUDY    70  68  94 S5        29.99S
LAFAYETTE      CLOUDY    70  69  97 CALM      29.96F
TERRE HAUTE    CLOUDY    72  69  90 S9        29.97F

$$

INZ030>032-037>040-046>048-054>057-064-065-311000-
CENTRAL INDIANA

CITY           SKY/WX    TMP DP  RH WIND       PRES   REMARKS
CP ATTERBURY + RAIN      70  68  94 S3        30.00S
FRANKFORT +    CLOUDY    71  71 100 CALM      29.99F
INDIANAPOLIS   CLOUDY    70  67  90 SW9       29.97F
-EAGLE CREEK   CLOUDY    71  66  84 S6        29.98S
KOKOMO *+      CLOUDY    72  66  83 W5        29.98F
MARION +       CLOUDY    69  67  92 SW6       29.99F
MT COMFORT *+  CLOUDY    70 N/A N/A CALM      30.00S
SHELBYVILLE    CLOUDY    72  69  90 SW8       29.99S
ZIONSVILLE +   CLOUDY    71  66  84 SW9       29.99S

$$

INZ033-034-041-042-049-050-058-059-311000-
EAST CENTRAL INDIANA

CITY           SKY/WX    TMP DP  RH WIND       PRES   REMARKS
MUNCIE         CLOUDY    71  66  84 SW7       30.00R

$$

INZ060-061-067>069-081>083-085>088-311000-
SOUTHWEST INDIANA

CITY           SKY/WX    TMP DP  RH WIND       PRES   REMARKS
EVANSVILLE     CLOUDY    73  70  90 S5        30.00S
WASHINGTON +   CLOUDY    71  71 100 S6        29.98S

$$

INZ062-063-066-070>080-084-089>092-311000-
SOUTH CENTRAL AND SOUTHEAST INDIANA

CITY           SKY/WX    TMP DP  RH WIND       PRES   REMARKS
BEDFORD +      CLOUDY    70  66  88 S3        30.00F FOG
BLOOMINGTON    CLOUDY    71  69  93 S7        29.99F
NORTH VERNON + CLOUDY    72  72 100 S3        30.01  FOG
SEYMOUR +      HVY RAIN  72  64  78 S6        30.00

$$




USA.gov is the U.S. government's official web portal to all federal, state and local government web resources and services.